Regional Weather Roundup
Issued by NWS Wakefield, VA

Home | Current Version | Previous Version | Text Only | Print | Product List | Glossary On
Versions: 1 2 3 4 5 6 7 8 9 10 11 12 13 14 15 16 17 18 19 20 21 22 23 24 25 26 27 28
000
ASUS41 KAKQ 310410
RWRAKQ

REGIONAL WEATHER ROUNDUP
NATIONAL WEATHER SERVICE WAKEFIELD VA
1200 AM EDT FRI OCT 31 2014

Note: "fair" indicates few or no clouds below 12,000 feet with no
significant weather and/or obstructions to visibility. * = Denotes
station may not report precipitation (e.g., rain,snow,etc.),
thunder or fog.

VAZ042-051-052>054-056-310500-
NORTHERN VIRGINIA

CITY           SKY/WX    TMP DP  RH WIND       PRES   REMARKS
WASH NATIONAL  PTCLDY    50  36  58 NW7       30.05S
DULLES         PTCLDY    36  34  92 CALM      30.05S
FORT BELVOIR   CLEAR     42  38  87 CALM      30.05F
QUANTICO       CLEAR     44  38  79 NW5       30.05F
FREDERICKSBRG* CLEAR     42  38  86 CALM      30.04F
STAFFORD*      CLEAR    N/A N/A N/A CALM      30.08F
WARRENTON      CLEAR     33  33 100 CALM      30.04S
CULPEPER*      CLEAR     36  36 100 CALM      30.05F
MANASSAS*      CLEAR     37  37 100 CALM      30.05F
LEESBURG*      CLOUDY    45  43  93 CALM      30.05S
WINCHESTER     CLOUDY    45  32  61 CALM      30.03F
FRONT ROYAL*   CLEAR     41  36  81 S3        30.03F
LURAY*         CLEAR     37  37 100 SW3       30.04F
$$

VAZ048-049-060>072-079>083-310500-
CENTRAL AND SOUTH CENTRAL VIRGINIA...AND NORTH CENTRAL NORTH CAROLINA

CITY           SKY/WX    TMP DP  RH WIND       PRES   REMARKS
RICHMOND       PTCLDY    46  37  71 N5        30.04S
CHESTERFIELD*  CLEAR     46  28  49 N3        30.05S
PETERSBURG*    CLEAR     40  38  95 CALM      30.04S
HANOVER        CLEAR     42  38  85 CALM      30.06S
TAPPAHANNOCK*  MOCLDY    43  37  81 CALM      30.04F
CHARLOTTSVILLE CLEAR     39  34  82 CALM      30.04F
ORANGE*        CLEAR     41  34  75 CALM      30.05F
LOUISA*        CLEAR     37  36  93 CALM      30.03S
FARMVILLE*     CLEAR     43  36  75 N3        30.02F
CREWE*         CLEAR     42  38  83 CALM      30.03S
FORT PICKETT*  CLEAR     44  38  77 N3        30.03S
LUNENBURG*     CLEAR     46  38  74 N5        30.03S
SOUTH HILL*    CLEAR     48  43  81 N5        30.07F
LAWRENCEVILLE* CLEAR     45  40  83 N3        30.02F
ROANOKE RAPIDS CLEAR     43  43 100 CALM      30.01F
RALEIGH        CLEAR     49  43  80 NE5       30.00S
$$

VAZ088>098-310500-
SOUTHEAST VIRGINIA

CITY           SKY/WX    TMP DP  RH WIND       PRES   REMARKS
NORFOLK        CLEAR     55  41  59 NE8       30.01S
VIRGINIA BEACH CLEAR     52  41  66 N5        30.00F
NORFOLK NAVAL  CLEAR     57  42  57 NE8       30.02F
WEST POINT*    CLEAR     45  41  88 CALM      30.04F
NEWPORT NEWS   LGT RAIN  48  43  82 CALM      30.01F
LANGLEY AFB    CLEAR     47  47 100 CALM      30.01F
FORT EUSTIS    CLEAR     49  49 100 N3        30.00F
WILLIAMSBURG*  CLEAR     46  45  93 N5        30.03S
HR EXEC AP*    CLEAR     39  36  87 CALM      30.03S
FRANKLIN*      CLEAR     43 N/A N/A CALM      30.02S
WAKEFIELD      CLEAR     43  41  93 CALM      30.02F
$$

VAZ020-022-025-037-045-310500-
WEST CENTRAL AND SOUTHWEST VIRGINIA

CITY           SKY/WX    TMP DP  RH WIND       PRES   REMARKS
STAUNTON*      CLEAR     33  30  90 CALM      30.06F
HOT SPRINGS VA CLEAR     35  29  80 E3        29.97F
LYNCHBURG      CLEAR     40  35  83 CALM      30.05S
DANVILLE       CLEAR     46  38  73 NE5       30.03S
SOUTH BOSTON*  NOT AVBL
MARTINSVILLE   PTCLDY    38  38 100 CALM      30.05F
ROANOKE        MOCLDY    45  35  68 N7        30.06S
BLACKSBURG     CLOUDY    37  37 100 CALM      30.05R
DUBLIN*        CLOUDY    39  36  87 W3        30.04S
MARION*        CLEAR     37  35  92 CALM      30.04F
HILLSVILLE*    CLEAR     40  34  78 E6        30.01F
RICHLANDS*     CLEAR     42  35  77 NE3       30.02S
WISE*          PTCLDY    37  32  81 NE3       30.02F
ABINGDON*      CLEAR     41  37  84 CALM      30.01S
$$

MDZ021>025-VAZ099-100-310500-
SOUTHERN MARYLAND AND THE DELMARVA PENINSULA

CITY           SKY/WX    TMP DP  RH WIND       PRES   REMARKS
PATUXENT RIVER CLEAR     50  40  68 N6        30.03F
BAY BRIDGE APT   N/A     52  39  62 NW3       30.04S
LEONARDTOWN    CLEAR     41  37  87 CALM      30.04F
DOVER          CLEAR     42  38  88 N5        30.01F
GEORGETOWN     CLEAR     47  38  71 NW3       30.04S
EASTON         CLEAR     46  42  83 CALM      30.07S
CAMBRIDGE      CLEAR     48  39  71 N3        30.02F
SALISBURY      CLEAR     47  38  71 N3        30.02F
OCEAN CITY     CLEAR     44  39  82 N6        30.02S
WALLOPS ISLAND CLEAR     47  39  74 N6        30.02F
ACCOMACK*      CLEAR     43  37  81 N5        30.02S
$$

NCZ012>017-030>032-310500-
EASTERN NORTH CAROLINA

CITY           SKY/WX    TMP DP  RH WIND       PRES   REMARKS
ELIZABETH CITY CLEAR     55  46  71 N8        29.99F
AHOSKIE*       NOT AVBL
EDENTON*       CLEAR     49  44  83 N5        29.99F
CURRITUCK*     CLEAR     51  45  79 N5        30.00F
KILL DEVIL HLS PTCLDY    59  46  60 NE6       29.96F
MANTEO         PTCLDY    58  46  63 N12       29.98F
CAPE HATTERAS  CLEAR     60  50  69 NE10G18   29.95F
TARBORO*       CLEAR     45  43  94 CALM      30.01F
GOLDSBORO      CLEAR     50  49  97 E7        29.97S
WASHINGTON     CLEAR     49  46  88 CALM      30.00S
GREENVILLE     CLEAR     50  46  87 NE3       30.01S
NEW BERN       CLEAR     55  49  80 NE8       29.98F
WILMINGTON     CLEAR     54  51  90 NE8       29.95F
$$

VAZ048-310500-
ELSEWHERE

CITY           SKY/WX    TMP DP  RH WIND       PRES   REMARKS
HARRISBURG PA  MOCLDY    47  39  74 CALM      30.03S
BALTIMORE      MOCLDY    49  39  68 CALM      30.03F
ANNAPOLIS      CLOUDY    52  41  66 NW3       30.03F
ANDREWS AFB    CLEAR     42  35  77 N5        30.03F
WILMINGTON DE  CLEAR     39  35  86 NW5       30.05S
PHILADELPHIA   CLEAR     47  34  60 NW5       30.04F
WILDWOOD NJ*   CLEAR     45  34  65 N7        30.04S
ATLANTIC CITY  CLEAR     41  35  79 CALM      30.03F
HENDERSON NC   CLEAR     44  41  91 CALM      30.02S
GREENSBORO     CLEAR     48  39  71 N6        30.00S
ROCKY MOUNT    CLEAR     47  44  90 NE3       30.00F
FAYETTEVILLE   CLEAR     49  46  90 N5        29.97S
CHARLOTTE      CLEAR     53  34  48 E5        29.98F
$$

VAZ100-310500-
MARINE

STATION/POSITION TIME  TEMP    WIND        PRES    WAVE   SWELL
                       AIR SEA DIR/SP/G            HT/PER HT/PER
                 (UTC) (F)     (DEG/KT/KT) (MB)    (FT/S) (FT/S)
44066 TX TWR #4  0400   57 64  340/ 12/ 16 1015.0F   2/ 4   2/ 7
CAPE MAY NJ      0400   49 64   40/  5/  8 1016.3S
LEWES DE         0400   54 61   40/ 17/ 20 1016.5R
15NM E FENWICK I 0400   57 65              1016.0S   2/ 4
OCEAN-CITY-INLET 0400   53 61  340/  6/  8 1016.0F
WACHAPREAGUE VA  0400   49 63  360/  3/  4 1016.5S
THOMAS POINT MD  0400   53 61  330/  8/  8 1018.0F
GOOSES REEF MD   0400   56      20/  8/ 12 1017.4F
COVE POINT MD    0400   54      60/ 10/ 11 1016.7F
SOLOMONS ISLAND  0400      62                N/A
BISHOPS HEAD MD  0400   52 61  350/  4/  6 1016.2F
PINEY POINT MD   0400           20/  7/  9   N/A
POTOMAC MD       0400   56      50/ 10/ 14 1016.2S
CAMBRIDGE MD     0400   54 60   10/  8/ 10 1016.5F
LEWISETTA VA     0400   55 62  360/  6/  8 1016.4F
RAPPAHANNOCK LGT 0400           40/ 13/ 14 1016.8S
STINGRAY PT      0400   58      40/ 12/ 16 1017.0F
YORK RVR RNG VA  0400   58      40/ 11/ 13 1015.6F
YORKTOWN VA      0400   53 64  350/  7/  8 1016.0F
JAMESTOWN VA     0400   50      10/  4/  6   N/A
DOMINION TERM VA 0400   54      30/  4/  5 1016.1F
KIPTOPEKE VA     0400      67   40/  4/  5   N/A
CHES BAY BRIDGE  0400   58 63   30/ 12/ 15 1015.5F
CHESAPEAKE LGHT  0300   59      30/ 15/ 17 1016.7S
WILLOUBY STN VA  0400   58      40/ 11/ 13 1014.8F
S CRANEY ISL VA  0400           40/  7/  9 1015.8F
CAPE HENRY BUOY  0400      65                N/A     3/ 5
1ST LANDING BUOY 0400   59      40/ 12/ 14 1015.8F
CAPE CHARLES BUO 0400      65                N/A     3/ 5   2/ 7
64NM E OF VA BCH 0400   61 66   30/ 12/ 14 1014.9F   2/ 5   2/ 6
DUCK PIER NC     0400   61 66   30/ 16/ 18 1014.4F
44100 DUCK FRF   0400      67                N/A     3/ 5
OREGON INLET NC  0400   61 68   30/ 12/ 16 1014.5F
HATTERAS NC      0400   62 68   30/ 12/ 17 1014.4F
DIAMOND SHLS NC  0400   65      20/ 19/ 25 1013.1F   5/ 6
CAPE LOOKOUT NC  0300   61      20/ 13/ 16 1014.1F
$$



USA.gov is the U.S. government's official web portal to all federal, state and local government web resources and services.